Regional Weather Roundup
Issued by NWS Goodland, KS

Home | Current Version | Previous Version | Text Only | Print | Product List | Glossary Off
Versions: 1 2 3 4 5 6 7 8 9 10 11 12 13 14 15 16 17 18 19 20 21 22 23 24 25 26 27 28 29 30 31 32 33 34 35 36 37 38 39 40 41 42 43 44 45 46 47 48 49 50

000
ASUS43 KGLD 280859
RWRGLD

GOODLAND FORECAST AREA HOURLY WEATHER ROUNDUP
NATIONAL WEATHER SERVICE GOODLAND KS
300 AM MDT WED SEP 28 2016

...OFFICIAL OBSERVATIONS...

CITY           SKY/WX    TMP DP  RH WIND       PRES   REMARKS
GOODLAND KS    CLEAR     48  37  65 NW6       30.11R
HILL CITY KS   CLEAR     51  45  79 W6        30.04R
IMPERIAL NEB   CLEAR     51  37  58 N6        30.11S
MCCOOK NEB     CLEAR     46  42  86 SW8       30.07R
AKRON CO       CLOUDY    51  30  44 W10       30.19R
BURLINGTON CO  CLEAR     50  38  63 W12       30.15R
LIMON CO       CLOUDY    44  25  47 NW5       30.23R
$$

...UNOFFICIAL OBSERVATIONS...

CITY           SKY/WX    TMP DP  RH WIND       PRES   REMARKS
COLBY KS       CLEAR     59  41  51 N10       30.10R
LENORA KS        N/A     56  32  40 MISG        N/A
NORTON KS      CLEAR     54  39  58 NW3       30.03S
SHARON SPRINGS   N/A     52  40  64 CALM        N/A
KIT CARSON CO    N/A     49  35  59 MISG        N/A
$$




USA.gov is the U.S. government's official web portal to all federal, state and local government web resources and services.